Regional Weather Roundup
Issued by NWS

Home | Current Version | Previous Version | Text Only | Print | Product List | Glossary On
Versions: 1 2 3 4 5 6 7 8 9 10 11 12 13 14 15 16 17 18 19 20 21 22 23 24 25 26 27 28 29 30 31 32 33 34 35 36 37 38 39 40 41 42 43 44 45 46 47 48 49 50
000
ASUS43 KDMX 301806
RWRIA

WEATHER ROUNDUP FOR IOWA
NATIONAL WEATHER SERVICE DES MOINES IA
100 PM CDT THU MAR 30 2017

NOTE: "FAIR" INDICATES FEW OR NO CLOUDS BELOW 12,000 FEET WITH NO
SIGNIFICANT WEATHER AND/OR OBSTRUCTIONS TO VISIBILITY.

* - THESE STATIONS ARE NOT NWS STATIONS...THUS NOT UNDER NWS
QUALITY CONTROL.  THEY ALSO DO NOT REPORT WEATHER SUCH
AS PRECIPITATION OR FOG.

IAZ001>003-012>014-020>022-031>034-043>046-301900-
   NORTHWEST IOWA

CITY           SKY/WX    TMP DP  RH WIND       PRES   REMARKS
CARROLL *      CLOUDY    41  41 100 NE20      29.71S
CHEROKEE *     CLOUDY    40  39  95 NE9       29.75F WCI  34
DENISON *      CLOUDY    41  39  93 NE14      29.73R
LE MARS *      CLOUDY    41  37  87 N10G16    29.78F
ORANGE CITY *  CLOUDY    39  37  93 NE9       29.77F WCI  33
SHELDON *      CLOUDY    39  37  93 NE15      29.76F WCI  31
SIOUX CITY     CLOUDY    43  39  86 N12       29.77F
6HR MIN TEMP:  39; 6HR MAX TEMP:  43;

SPENCER        CLOUDY    40  38  93 NE17      29.76F WCI  31
6HR MIN TEMP:  37; 6HR MAX TEMP:  40;

STORM LAKE *   CLOUDY    39  37  93 NE16      29.73F WCI  30
$$

IAZ055>058-069>071-079>083-090>094-301900-
   SOUTHWEST IOWA

CITY           SKY/WX    TMP DP  RH WIND       PRES   REMARKS
ATLANTIC *     CLOUDY    43  41  93 NE18G25   29.68S
AUDUBON *      CLOUDY    41  37  87 NE15      29.70S
CLARINDA *     CLOUDY    45  43  93 NE15G23   29.67R
COUNCIL BLFS * CLOUDY    43  43 100 N17       29.69S
CRESTON *      CLOUDY    43  43 100 NE17G24   29.65R FOG
HARLAN  *      CLOUDY    43  43 100 N17       29.72R
LAMONI         CLOUDY    44  43  96 NE17      29.61S FOG
6HR MIN TEMP:  43; 6HR MAX TEMP:  44; 6HR PCP:  0.01;

RED OAK *      CLOUDY    45  43  93 N17G25    29.66S
SHENANDOAH *   CLOUDY    45  41  87 N18       29.67S
$$

IAZ047>049-059>061-072>074-084-301900-
   CENTRAL IOWA

CITY           SKY/WX    TMP DP  RH WIND       PRES   REMARKS
AMES           CLOUDY    42  41  96 E15G22    29.71R
6HR MIN TEMP:  41; 6HR MAX TEMP:  42; 6HR PCP:  0.01;

ANKENY *       CLOUDY    43  41  93 NE13      29.69F FOG
BOONE *        CLOUDY    41  41 100 NE20      29.70R
CHARITON *     CLOUDY    43  43 100 NE13      29.63S FOG
DES MOINES     DRIZZLE   44  42  93 NE13      29.68S FOG
6HR MIN TEMP:  43; 6HR MAX TEMP:  44; 6HR PCP:  0.01;

GRINNELL*      CLOUDY    42  40  95 NE14      29.67F FOG
KNOXVILLE *    PTSUNNY   43  43 100 NE12G20   29.63F FOG
MARSHALLTOWN   CLOUDY    42  40  92 NE17      29.68F
6HR MIN TEMP:  41; 6HR MAX TEMP:  42;

NEWTON *       CLOUDY    41  41 100 NE13G20   29.66F FOG
PELLA *        CLOUDY    43  43  99 NE12G18   29.65F FOG
PERRY *        CLOUDY    42  41  95 NE14      29.70S FOG
$$

IAZ004>006-015-016-023>025-035-036-301900-
   NORTH CENTRAL IOWA

CITY           SKY/WX    TMP DP  RH WIND       PRES   REMARKS
ALGONA *       CLOUDY    39  39 100 NE17      29.74S WCI  30
CLARION *      CLOUDY    43  43 100 E18       29.73R
ESTHERVILLE    CLOUDY    38  38 100 NE18      29.75F WCI  28
FORT DODGE *   CLOUDY    41  36  81 NE12      29.74R
MASON CITY     CLOUDY    41  37  86 NE17      29.77R
6HR MIN TEMP:  37; 6HR MAX TEMP:  42;

FOREST CITY *  CLOUDY    41  39  93 NE12G17   29.75R
WEBSTER CITY * CLOUDY    43  39  87 NE15G22   29.71R
IOWA FALLS *   CLOUDY    42  39  91 NE15G21   29.73R
$$

IAZ007>011-017>019-026>030-037>042-050>054-066-301900-
   NORTHEAST IOWA

CITY           SKY/WX    TMP DP  RH WIND       PRES   REMARKS
CEDAR RAPIDS   LGT RAIN  42  42 100 NE15      29.62F FOG
6HR MIN TEMP:  41; 6HR MAX TEMP:  42; 6HR PCP:  0.01;

CHARLES CITY * CLOUDY    39  39 100 E16       29.76R WCI  30
CLINTON *      CLOUDY    43  41  93 NE20      29.62F
DECORAH *      CLOUDY    37  36  93 E14G21    29.74S WCI  29
DUBUQUE        CLOUDY    39  37  92 NE17      29.66F FOG     WCI  30
6HR MIN TEMP:  39; 6HR MAX TEMP:  39; 6HR PCP:  0.29;

MONTICELLO *   PTSUNNY   41  39  93 NE13G22   29.65F FOG
OELWEIN *      CLOUDY    39  39 100 NE16G22   29.71F WCI  30
WATERLOO       CLOUDY    40  38  93 NE17      29.71F FOG     WCI  31
6HR MIN TEMP:  40; 6HR MAX TEMP:  41; 6HR PCP:  0.03;

$$

IAZ064-065-067-068-078-301900-
   EAST CENTRAL IOWA

CITY           SKY/WX    TMP DP  RH WIND       PRES   REMARKS
DAVENPORT      CLOUDY    44  42  93 NE15      29.60F
6HR MIN TEMP:  43; 6HR MAX TEMP:  45; 6HR PCP:  0.14;

IOWA CITY      CLOUDY    45  42  89 NE17      29.63F
6HR MIN TEMP:  44; 6HR MAX TEMP:  45; 6HR PCP:  0.01;

MUSCATINE *    CLOUDY    46  45  93 NE14      29.60R
QUAD CITIES    CLOUDY    46  42  86 NE10      29.59F
6HR MIN TEMP:  45; 6HR MAX TEMP:  46; 6HR PCP:  0.15;

$$

IAZ062-063-075>077-085>089-095>099-301900-
   SOUTHEAST IOWA

CITY           SKY/WX    TMP DP  RH WIND       PRES   REMARKS
BURLINGTON     LGT RAIN  47  47 100 NE12      29.56F FOG
6HR MIN TEMP:  45; 6HR MAX TEMP:  48; 6HR PCP:  0.03;

FAIRFIELD *    CLOUDY    46  45  93 NE15      29.60S FOG
FORT MADISON * LGT RAIN  48  46  93 NE8       29.56F
KEOKUK *       CLOUDY    50  50 100 N8        29.55S
OSKALOOSA *    CLOUDY    44  43  97 NE17      29.62S
CENTERVILLE *  LGT RAIN  45  45 100 N3        29.62F
OTTUMWA        CLOUDY    46  44  93 NE14      29.61S
6HR MIN TEMP:  44; 6HR MAX TEMP:  46; 6HR PCP:  0.01;

WASHINGTON *   CLOUDY    45  45 100 NE15      29.60F FOG
$$

ABBREVIATIONS USED IN REMARKS
   TC - TEMPERATURES IN CELSIUS
  WCI - WIND CHILL INDEX
   HX - HEAT INDEX
  VSB - VISIBILITY
$$





USA.gov is the U.S. government's official web portal to all federal, state and local government web resources and services.